When you browse on this site, cookies collect data to enhance your experience and personalize the content and advertising you see.
Visit our Privacy Policy to learn more. By continuing to use the site, you agree to this use of cookies and data.
  • In Österreich
  • Länderverzeichnis
  • Für 7 Tage
  • Wassertemperatur
  • Satellitenkarten
  • Wetterkarte
  • News
  • Widgets
  • user-avatar
    Anmelden

    Stündliche Wetter Yazykovschina

    Heute, 20 Februar, Mittwoch

    Zeit Temperatur Niederschläge Wind Luftdruck Luftfeuchtigkeit
    00:00 0°C° 0.1 mm 4 m/S 740 mmHg 91%
    01:00 0°C° 0.1 mm 4 m/S 739 mmHg 91%
    02:00 +1°C° 0 mm 5 m/S 739 mmHg 91%
    03:00 +1°C° 0.1 mm 5 m/S 739 mmHg 91%
    04:00 +1°C° 0.1 mm 4 m/S 739 mmHg 91%
    05:00 +1°C° 0.1 mm 4 m/S 738 mmHg 91%
    06:00 0°C° 0.1 mm 4 m/S 738 mmHg 90%
    07:00 0°C° 0.1 mm 5 m/S 738 mmHg 90%
    08:00 0°C° 0.1 mm 5 m/S 738 mmHg 89%
    09:00 +1°C° 0.1 mm 5 m/S 738 mmHg 88%
    10:00 +1°C° 0.1 mm 5 m/S 737 mmHg 87%
    11:00 +1°C° 0.1 mm 5 m/S 737 mmHg 85%
    12:00 +1°C° 0.4 mm 5 m/S 737 mmHg 85%
    13:00 +1°C° 0.4 mm 5 m/S 737 mmHg 84%
    14:00 +1°C° 0.4 mm 5 m/S 736 mmHg 84%
    15:00 +1°C° 0.6 mm 5 m/S 736 mmHg 85%
    16:00 +1°C° 0.6 mm 5 m/S 736 mmHg 86%
    17:00 +1°C° 0.6 mm 5 m/S 736 mmHg 86%
    18:00 -1°C° 0.3 mm 5 m/S 736 mmHg 83%
    19:00 -2°C° 0.3 mm 5 m/S 737 mmHg 80%
    20:00 -4°C° 0.3 mm 5 m/S 737 mmHg 77%
    21:00 -4°C° 0.2 mm 5 m/S 738 mmHg 76%
    22:00 -5°C° 0.2 mm 6 m/S 738 mmHg 75%
    23:00 -6°C° 0.2 mm 6 m/S 739 mmHg 74%

    Morgen, 21 Februar, Donnerstag

    Zeit Temperatur Niederschläge Wind Luftdruck Luftfeuchtigkeit
    00:00 -6°C° 0.1 mm 6 m/S 740 mmHg 75%
    01:00 -6°C° 0.1 mm 6 m/S 740 mmHg 76%
    02:00 -8°C° 0.1 mm 6 m/S 741 mmHg 77%
    03:00 -8°C° 0.1 mm 6 m/S 741 mmHg 77%
    04:00 -8°C° 0.1 mm 6 m/S 741 mmHg 76%
    05:00 -8°C° 0.1 mm 6 m/S 742 mmHg 76%
    06:00 -8°C° 0.2 mm 6 m/S 742 mmHg 76%
    07:00 -9°C° 0.2 mm 7 m/S 743 mmHg 76%
    08:00 -9°C° 0.2 mm 7 m/S 744 mmHg 76%
    09:00 -8°C° 0.1 mm 7 m/S 745 mmHg 74%
    10:00 -8°C° 0.1 mm 7 m/S 746 mmHg 72%
    11:00 -8°C° 0.1 mm 7 m/S 747 mmHg 69%
    12:00 -8°C° 0 mm 6 m/S 747 mmHg 68%
    13:00 -8°C° 0 mm 6 m/S 748 mmHg 67%
    14:00 -8°C° 0 mm 6 m/S 749 mmHg 65%
    15:00 -9°C° 0 mm 6 m/S 750 mmHg 66%
    16:00 -10°C° 0 mm 6 m/S 751 mmHg 66%
    17:00 -10°C° 0 mm 6 m/S 751 mmHg 67%
    18:00 -10°C° 0 mm 5 m/S 752 mmHg 67%
    19:00 -11°C° 0 mm 5 m/S 753 mmHg 67%
    20:00 -11°C° 0 mm 5 m/S 754 mmHg 68%
    21:00 -11°C° 0 mm 5 m/S 754 mmHg 68%
    22:00 -12°C° 0 mm 5 m/S 755 mmHg 69%
    23:00 -11°C° 0 mm 4 m/S 755 mmHg 69%

    übermorgen, 22 Februar, Freitag

    Zeit Temperatur Niederschläge Wind Luftdruck Luftfeuchtigkeit
    00:00 -11°C° 0 mm 4 m/S 756 mmHg 70%
    01:00 -12°C° 0 mm 4 m/S 756 mmHg 71%
    02:00 -12°C° 0 mm 4 m/S 757 mmHg 71%
    03:00 -12°C° 0 mm 4 m/S 757 mmHg 72%
    04:00 -12°C° 0 mm 4 m/S 758 mmHg 73%
    05:00 -14°C° 0 mm 4 m/S 758 mmHg 73%
    06:00 -13°C° 0 mm 5 m/S 759 mmHg 73%
    07:00 -13°C° 0 mm 5 m/S 759 mmHg 73%
    08:00 -13°C° 0 mm 5 m/S 760 mmHg 73%
    09:00 -12°C° 0 mm 5 m/S 760 mmHg 70%
    10:00 -12°C° 0 mm 6 m/S 760 mmHg 68%
    11:00 -11°C° 0 mm 6 m/S 760 mmHg 65%
    12:00 -10°C° 0 mm 6 m/S 761 mmHg 62%
    13:00 -10°C° 0 mm 6 m/S 761 mmHg 58%
    14:00 -11°C° 0 mm 7 m/S 761 mmHg 55%
    15:00 -10°C° 0.1 mm 6 m/S 761 mmHg 59%
    16:00 -10°C° 0.1 mm 6 m/S 762 mmHg 63%
    17:00 -10°C° 0.1 mm 6 m/S 762 mmHg 67%
    18:00 -11°C° 0.1 mm 6 m/S 763 mmHg 68%
    19:00 -11°C° 0.1 mm 6 m/S 763 mmHg 70%
    20:00 -11°C° 0.1 mm 6 m/S 764 mmHg 71%
    21:00 -12°C° 0 mm 5 m/S 764 mmHg 72%
    22:00 -12°C° 0 mm 5 m/S 765 mmHg 73%
    23:00 -12°C° 0 mm 4 m/S 765 mmHg 74%

    23 Februar, Samstag

    Zeit Temperatur Niederschläge Wind Luftdruck Luftfeuchtigkeit
    00:00 -12°C° 0 mm 4 m/S 765 mmHg 76%
    01:00 -12°C° 0 mm 4 m/S 766 mmHg 79%
    02:00 -14°C° 0 mm 4 m/S 766 mmHg 81%
    03:00 -13°C° 0 mm 3 m/S 766 mmHg 82%
    04:00 -13°C° 0 mm 3 m/S 766 mmHg 84%
    05:00 -14°C° 0 mm 3 m/S 766 mmHg 85%
    06:00 -14°C° 0 mm 3 m/S 767 mmHg 85%
    07:00 -14°C° 0 mm 3 m/S 767 mmHg 86%
    08:00 -14°C° 0 mm 3 m/S 767 mmHg 86%
    09:00 -12°C° 0 mm 2 m/S 767 mmHg 80%
    10:00 -10°C° 0 mm 2 m/S 767 mmHg 74%
    11:00 -9°C° 0 mm 2 m/S 767 mmHg 68%
    12:00 -8°C° 0 mm 2 m/S 767 mmHg 66%
    13:00 -8°C° 0 mm 2 m/S 766 mmHg 64%
    14:00 -7°C° 0 mm 2 m/S 766 mmHg 62%
    15:00 -7°C° 0 mm 2 m/S 766 mmHg 64%
    16:00 -7°C° 0 mm 2 m/S 765 mmHg 66%
    17:00 -7°C° 0 mm 2 m/S 765 mmHg 68%
    18:00 -7°C° 0 mm 2 m/S 765 mmHg 71%
    19:00 -7°C° 0 mm 2 m/S 764 mmHg 74%
    20:00 -7°C° 0 mm 2 m/S 764 mmHg 76%
    21:00 -7°C° 0.1 mm 2 m/S 763 mmHg 80%
    22:00 -8°C° 0.1 mm 3 m/S 763 mmHg 84%
    23:00 -7°C° 0.1 mm 3 m/S 762 mmHg 88%

    24 Februar, Sonntag

    Zeit Temperatur Niederschläge Wind Luftdruck Luftfeuchtigkeit
    00:00 -7°C° 0.1 mm 3 m/S 762 mmHg 89%
    01:00 -6°C° 0.1 mm 2 m/S 762 mmHg 90%
    02:00 -6°C° 0.1 mm 2 m/S 762 mmHg 91%
    03:00 -5°C° 0.1 mm 2 m/S 762 mmHg 92%
    04:00 -5°C° 0.1 mm 2 m/S 761 mmHg 93%
    05:00 -3°C° 0.1 mm 1 m/S 761 mmHg 94%
    06:00 -3°C° 0 mm 1 m/S 761 mmHg 95%
    07:00 -2°C° 0 mm 1 m/S 762 mmHg 95%
    08:00 -2°C° 0 mm 1 m/S 762 mmHg 96%
    09:00 -1°C° 0 mm 1 m/S 762 mmHg 94%
    10:00 0°C° 0 mm 1 m/S 762 mmHg 92%
    11:00 +1°C° 0 mm 1 m/S 762 mmHg 90%
    12:00 0°C° 0 mm 0 m/S 762 mmHg 89%
    13:00 +1°C° 0 mm 0 m/S 762 mmHg 88%
    14:00 +1°C° 0 mm 0 m/S 762 mmHg 88%
    15:00 +1°C° 0 mm 0 m/S 762 mmHg 90%
    16:00 +1°C° 0 mm 1 m/S 762 mmHg 92%
    17:00 +1°C° 0 mm 1 m/S 762 mmHg 94%
    18:00 +1°C° 0 mm 1 m/S 762 mmHg 95%
    19:00 +1°C° 0 mm 1 m/S 762 mmHg 95%
    20:00 0°C° 0 mm 1 m/S 762 mmHg 95%
    21:00 0°C° 0 mm 1 m/S 762 mmHg 94%
    22:00 -2°C° 0 mm 2 m/S 762 mmHg 93%
    23:00 -1°C° 0 mm 2 m/S 762 mmHg 91%

    25 Februar, Montag

    Zeit Temperatur Niederschläge Wind Luftdruck Luftfeuchtigkeit
    00:00 -2°C° 0 mm 2 m/S 761 mmHg 91%
    01:00 -2°C° 0 mm 2 m/S 761 mmHg 91%
    02:00 -2°C° 0 mm 3 m/S 760 mmHg 90%
    03:00 -2°C° 0 mm 3 m/S 760 mmHg 91%
    04:00 -2°C° 0 mm 3 m/S 759 mmHg 92%
    05:00 -2°C° 0 mm 3 m/S 759 mmHg 93%
    06:00 -1°C° 0 mm 3 m/S 758 mmHg 94%
    07:00 -1°C° 0 mm 3 m/S 758 mmHg 94%
    08:00 0°C° 0 mm 3 m/S 758 mmHg 95%
    09:00 0°C° 0 mm 3 m/S 758 mmHg 93%
    10:00 0°C° 0 mm 3 m/S 758 mmHg 90%
    11:00 -1°C° 0 mm 4 m/S 757 mmHg 87%
    12:00 -1°C° 0 mm 4 m/S 757 mmHg 86%
    13:00 -1°C° 0 mm 4 m/S 757 mmHg 84%
    14:00 -1°C° 0 mm 4 m/S 757 mmHg 83%
    15:00 -1°C° 0.1 mm 4 m/S 757 mmHg 83%
    16:00 0°C° 0.1 mm 3 m/S 757 mmHg 82%
    17:00 0°C° 0.1 mm 3 m/S 757 mmHg 82%
    18:00 0°C° 0 mm 3 m/S 757 mmHg 83%
    19:00 -1°C° 0 mm 3 m/S 757 mmHg 84%
    20:00 -1°C° 0 mm 3 m/S 757 mmHg 86%
    21:00 -1°C° 0 mm 3 m/S 757 mmHg 86%
    22:00 -1°C° 0 mm 3 m/S 756 mmHg 87%
    23:00 -2°C° 0 mm 3 m/S 756 mmHg 88%
    Mehr zeigen